Location: Newark
(51.2625°N, 13.3939°E)
Time: 20:56:14
(UTC+00:00)

SR - All Passes

Search period start: 18 November 2019 00:00
Search period end: 28 November 2019 00:00
Orbit: 574 x 882 km, 66.7° (Epoch: 18 November)

Date Brightness Start Highest point End Pass type
(mag) Time Alt. Az. Time Alt. Az. Time Alt. Az.
18 Nov - 00:07:14 10° WNW 00:11:38 22° WSW 00:15:56 10° SSW night (unlit)
18 Nov - 13:00:31 10° SSE 13:04:23 20° ESE 13:08:27 10° ENE daylight
18 Nov - 14:40:20 10° SW 14:45:46 86° NW 14:51:38 10° NE daylight
18 Nov - 16:23:53 10° W 16:28:43 28° NNW 16:33:46 10° NNE visible
18 Nov - 18:08:54 10° NW 18:12:46 18° N 18:16:43 10° NE visible
18 Nov - 19:52:21 10° NNW 19:57:00 23° NNE 20:01:40 10° ENE visible
18 Nov - 21:34:29 10° NW 21:40:23 57° NE 21:46:08 10° ESE visible
18 Nov - 23:16:58 10° NW 23:22:21 37° WSW 23:27:37 10° S night (unlit)
19 Nov - 12:13:59 10° ESE 12:15:19 11° E 12:16:40 10° E daylight
19 Nov - 13:50:53 10° SSW 13:56:09 58° ESE 14:01:50 10° NE daylight
19 Nov - 15:33:25 10° WSW 15:38:35 39° NW 15:44:05 10° NNE daylight
19 Nov - 17:18:16 10° WNW 17:22:21 19° NNW 17:26:32 10° NNE visible
19 Nov - 19:02:27 10° NNW 19:06:39 20° NNE 19:10:52 10° ENE visible
19 Nov - 20:44:50 10° NNW 20:50:24 39° NE 20:55:54 10° ESE visible
19 Nov - 22:27:01 10° NW 22:32:54 62° WSW 22:38:36 10° SSE night (unlit)
20 Nov - 00:11:26 10° WNW 00:13:53 13° W 00:16:18 10° SW night (unlit)
20 Nov - 13:01:56 10° S 13:06:43 34° ESE 13:11:51 10° NE daylight
20 Nov - 14:43:14 10° SW 14:48:37 57° NW 14:54:25 10° NE daylight
20 Nov - 16:27:32 10° WNW 16:31:59 23° NNW 16:36:36 10° NNE visible
20 Nov - 18:12:18 10° NW 18:16:14 18° N 18:20:11 10° NE visible
20 Nov - 19:55:10 10° NNW 20:00:17 29° NNE 20:05:22 10° E visible
20 Nov - 21:37:15 10° NW 21:43:16 84° NE 21:49:05 10° SE visible
20 Nov - 23:20:15 10° WNW 23:24:46 23° WSW 23:29:09 10° SSW night (unlit)
21 Nov - 12:13:43 10° SSE 12:17:30 20° ESE 12:21:28 10° ENE daylight
21 Nov - 13:53:23 10° SW 13:58:50 89° NW 14:04:42 10° NE daylight
21 Nov - 15:36:52 10° W 15:41:44 29° NNW 15:46:51 10° NNE visible
21 Nov - 17:21:53 10° NW 17:25:47 18° N 17:29:45 10° NE visible
21 Nov - 19:05:24 10° NNW 19:10:02 23° NNE 19:14:38 10° ENE visible
21 Nov - 20:47:34 10° NW 20:53:26 55° NE 20:59:10 10° ESE visible
21 Nov - 22:30:01 10° NW 22:35:28 39° WSW 22:40:45 10° S night (unlit)
22 Nov - 11:27:44 10° ESE 11:28:27 10° E 11:29:10 10° E daylight
22 Nov - 13:03:58 10° SSW 13:09:14 56° ESE 13:14:55 10° NE daylight
22 Nov - 14:46:24 10° WSW 14:51:38 40° NW 14:57:10 10° NNE daylight
22 Nov - 16:31:13 10° WNW 16:35:22 20° NNW 16:39:36 10° NNE visible
22 Nov - 18:15:29 10° NNW 18:19:40 19° NNE 18:23:51 10° ENE visible
22 Nov - 19:57:55 10° NNW 20:03:27 38° NE 20:08:54 10° ESE visible
22 Nov - 21:40:05 10° NW 21:46:00 65° WSW 21:51:41 10° SSE visible
22 Nov - 23:24:18 10° WNW 23:27:01 13° WSW 23:29:41 10° SW night (unlit)
23 Nov - 12:15:05 10° S 12:19:50 32° ESE 12:24:54 10° NE daylight
23 Nov - 13:56:14 10° SW 14:01:41 60° NW 14:07:30 10° NE daylight
23 Nov - 15:40:29 10° WNW 15:45:01 23° NNW 15:49:41 10° NNE visible
23 Nov - 17:25:19 10° NW 17:29:14 18° N 17:33:11 10° NE visible
23 Nov - 19:08:15 10° NNW 19:13:19 28° NNE 19:18:20 10° E visible
23 Nov - 20:50:20 10° NW 20:56:20 81° NE 21:02:09 10° SE visible
23 Nov - 22:33:16 10° WNW 22:37:53 24° WSW 22:42:22 10° SSW night (unlit)
24 Nov - 11:26:56 10° SSE 11:30:37 19° ESE 11:34:27 10° ENE daylight
24 Nov - 13:06:26 10° SW 13:11:54 88° SE 13:17:48 10° NE daylight
24 Nov - 14:49:50 10° W 14:54:46 30° NNW 14:59:56 10° NNE daylight
24 Nov - 16:34:52 10° NW 16:38:47 18° N 16:42:47 10° NE visible
24 Nov - 18:18:28 10° NNW 18:23:03 22° NNE 18:27:37 10° ENE visible
24 Nov - 20:00:39 10° NNW 20:06:30 53° NE 20:12:11 10° ESE visible
24 Nov - 21:43:03 10° NW 21:48:34 40° WSW 21:53:53 10° S visible
25 Nov - 12:17:03 10° SSW 12:22:19 53° ESE 12:27:58 10° NE daylight
25 Nov - 13:59:23 10° WSW 14:04:40 41° NW 14:10:16 10° NNE daylight
25 Nov - 15:44:11 10° WNW 15:48:22 20° NNW 15:52:39 10° NNE visible
25 Nov - 17:28:31 10° NNW 17:32:40 19° NNE 17:36:50 10° NE visible
25 Nov - 19:11:00 10° NNW 19:16:29 37° NE 19:21:53 10° ESE visible
25 Nov - 20:53:09 10° NW 20:59:05 68° WSW 21:04:47 10° SSE visible
25 Nov - 22:37:11 10° WNW 22:40:08 14° WSW 22:43:02 10° SW night (unlit)
26 Nov - 11:28:13 10° S 11:32:56 31° ESE 11:37:57 10° NE daylight
26 Nov - 13:09:16 10° SW 13:14:44 62° NW 13:20:36 10° NE daylight
26 Nov - 14:53:26 10° WNW 14:58:02 24° NNW 15:02:46 10° NNE daylight
26 Nov - 16:38:19 10° NW 16:42:14 18° N 16:46:12 10° NE visible
26 Nov - 18:21:18 10° NNW 18:26:20 27° NNE 18:31:19 10° E visible
26 Nov - 20:03:24 10° NW 20:09:24 78° NE 20:15:12 10° SE visible
26 Nov - 21:46:17 10° WNW 21:51:00 25° WSW 21:55:33 10° SSW night (unlit)
27 Nov - 10:40:10 10° SE 10:43:44 18° ESE 10:47:27 10° ENE daylight
27 Nov - 12:19:29 10° SSW 12:24:59 84° SE 12:30:53 10° NE daylight
27 Nov - 14:02:48 10° W 14:07:48 31° NNW 14:13:02 10° NNE daylight
27 Nov - 15:47:50 10° NW 15:51:47 18° N 15:55:48 10° NE visible
27 Nov - 17:31:32 10° NNW 17:36:03 22° NNE 17:40:35 10° ENE visible
27 Nov - 19:13:44 10° NNW 19:19:33 51° NE 19:25:12 10° ESE visible
27 Nov - 20:56:07 10° NW 21:01:40 42° WSW 21:07:01 10° S visible
